Time,TemperatureF,DewpointF,PressureIn,WindDirection,WindDirectionDegrees,WindSpeedMPH,WindSpeedGustMPH,Humidity,HourlyPrecipIn,Conditions,Clouds,dailyrainin,SoftwareType,DateUTC
2013-03-15 00:03:00,40.0,17.0,30.15,West,261,3.0,7.0,39,0.00,,,0.00,,2013-03-15 04:03:00,
2013-03-15 00:12:00,40.0,17.0,30.15,West,261,3.0,7.0,39,0.00,,,0.00,,2013-03-15 04:12:00,
2013-03-15 00:23:00,40.0,16.0,30.15,West,269,4.0,10.0,38,0.00,,,0.00,,2013-03-15 04:23:00,
2013-03-15 00:33:00,40.0,16.0,30.15,West,278,3.0,7.0,38,0.00,,,0.00,,2013-03-15 04:33:00,
2013-03-15 00:43:00,40.0,16.0,30.15,West,278,3.0,7.0,38,0.00,,,0.00,,2013-03-15 04:43:00,
2013-03-15 00:53:00,40.0,16.0,30.15,WNW,289,2.0,8.0,37,0.00,,,0.00,,2013-03-15 04:53:00,
2013-03-15 01:02:00,40.0,16.0,30.15,WSW,254,3.0,7.0,37,0.00,,,0.00,,2013-03-15 05:02:00,
2013-03-15 01:12:00,40.0,16.0,30.15,WSW,254,3.0,7.0,37,0.00,,,0.00,,2013-03-15 05:12:00,
2013-03-15 01:23:00,40.0,16.0,30.14,WSW,242,4.0,6.0,37,0.00,,,0.00,,2013-03-15 05:23:00,
2013-03-15 01:32:00,39.0,15.0,30.14,SW,235,4.0,9.0,37,0.00,,,0.00,,2013-03-15 05:32:00,
2013-03-15 01:42:00,39.0,15.0,30.14,SW,235,4.0,9.0,37,0.00,,,0.00,,2013-03-15 05:42:00,
2013-03-15 01:52:00,39.0,16.0,30.14,WSW,245,5.0,7.0,38,0.00,,,0.00,,2013-03-15 05:52:00,
2013-03-15 02:02:00,39.0,16.0,30.14,WSW,240,3.0,6.0,38,0.00,,,0.00,,2013-03-15 06:02:00,
2013-03-15 02:12:00,39.0,16.0,30.14,WSW,240,3.0,6.0,38,0.00,,,0.00,,2013-03-15 06:12:00,
2013-03-15 02:22:00,39.0,15.0,30.13,West,273,4.0,9.0,37,0.00,,,0.00,,2013-03-15 06:22:00,
2013-03-15 02:32:00,39.0,15.0,30.13,West,265,3.0,9.0,37,0.00,,,0.00,,2013-03-15 06:32:00,
2013-03-15 02:42:00,39.0,15.0,30.13,West,265,3.0,9.0,37,0.00,,,0.00,,2013-03-15 06:42:00,
2013-03-15 02:53:00,39.0,15.0,30.12,West,269,3.0,6.0,37,0.00,,,0.00,,2013-03-15 06:53:00,
2013-03-15 03:02:00,38.0,15.0,30.12,West,264,2.0,5.0,38,0.00,,,0.00,,2013-03-15 07:02:00,
2013-03-15 03:12:00,38.0,15.0,30.12,West,264,2.0,5.0,38,0.00,,,0.00,,2013-03-15 07:12:00,
2013-03-15 03:22:00,38.0,15.0,30.12,West,263,4.0,8.0,38,0.00,,,0.00,,2013-03-15 07:22:00,
2013-03-15 03:32:00,38.0,15.0,30.12,West,271,2.0,6.0,39,0.00,,,0.00,,2013-03-15 07:32:00,
2013-03-15 03:42:00,38.0,15.0,30.12,West,271,2.0,6.0,39,0.00,,,0.00,,2013-03-15 07:42:00,
2013-03-15 03:52:00,38.0,15.0,30.12,WSW,254,2.0,4.0,39,0.00,,,0.00,,2013-03-15 07:52:00,
2013-03-15 04:02:00,38.0,15.0,30.12,SW,218,4.0,7.0,39,0.00,,,0.00,,2013-03-15 08:02:00,
2013-03-15 04:12:00,38.0,15.0,30.12,SW,218,4.0,7.0,39,0.00,,,0.00,,2013-03-15 08:12:00,
2013-03-15 04:23:00,38.0,15.0,30.11,SW,227,2.0,5.0,39,0.00,,,0.00,,2013-03-15 08:23:00,
2013-03-15 04:33:00,38.0,16.0,30.11,WSW,240,4.0,6.0,40,0.00,,,0.00,,2013-03-15 08:33:00,
2013-03-15 04:42:00,38.0,16.0,30.11,WSW,240,4.0,6.0,40,0.00,,,0.00,,2013-03-15 08:42:00,
2013-03-15 04:52:00,37.0,16.0,30.11,West,260,2.0,7.0,41,0.00,,,0.00,,2013-03-15 08:52:00,
2013-03-15 05:02:00,37.0,17.0,30.11,West,271,1.0,6.0,43,0.00,,,0.00,,2013-03-15 09:02:00,
2013-03-15 05:12:00,37.0,17.0,30.11,West,271,1.0,6.0,43,0.00,,,0.00,,2013-03-15 09:12:00,
2013-03-15 05:22:00,36.0,16.0,30.10,West,280,1.0,4.0,44,0.00,,,0.00,,2013-03-15 09:22:00,
2013-03-15 05:33:00,36.0,16.0,30.10,West,269,1.0,5.0,44,0.00,,,0.00,,2013-03-15 09:33:00,
2013-03-15 05:43:00,36.0,16.0,30.10,West,269,1.0,5.0,44,0.00,,,0.00,,2013-03-15 09:43:00,
2013-03-15 05:53:00,36.0,17.0,30.10,West,281,0.0,4.0,45,0.00,,,0.00,,2013-03-15 09:53:00,
2013-03-15 06:03:00,36.0,17.0,30.10,WNW,294,0.0,2.0,46,0.00,,,0.00,,2013-03-15 10:03:00,
2013-03-15 06:13:00,36.0,17.0,30.10,WNW,294,0.0,2.0,46,0.00,,,0.00,,2013-03-15 10:13:00,
2013-03-15 06:23:00,36.0,17.0,30.10,West,271,2.0,3.0,46,0.00,,,0.00,,2013-03-15 10:23:00,
2013-03-15 06:33:00,36.0,17.0,30.13,WSW,238,3.0,4.0,45,0.00,,,0.00,,2013-03-15 10:33:00,
2013-03-15 06:43:00,36.0,17.0,30.13,WSW,238,3.0,4.0,45,0.00,,,0.00,,2013-03-15 10:43:00,
2013-03-15 06:52:00,37.0,18.0,30.13,SW,236,0.0,4.0,45,0.00,,,0.00,,2013-03-15 10:52:00,
2013-03-15 07:03:00,36.0,18.0,30.13,WSW,237,0.0,2.0,47,0.00,,,0.00,,2013-03-15 11:03:00,
2013-03-15 07:12:00,36.0,18.0,30.13,WSW,237,0.0,2.0,47,0.00,,,0.00,,2013-03-15 11:12:00,
2013-03-15 07:23:00,36.0,18.0,30.13,SW,236,2.0,3.0,47,0.00,,,0.00,,2013-03-15 11:23:00,
2013-03-15 07:32:00,36.0,18.0,30.13,SW,236,0.0,2.0,48,0.00,,,0.00,,2013-03-15 11:32:00,
2013-03-15 07:42:00,36.0,18.0,30.13,SW,236,0.0,2.0,48,0.00,,,0.00,,2013-03-15 11:42:00,
2013-03-15 07:52:00,35.0,18.0,30.13,SW,236,0.0,0.0,50,0.00,,,0.00,,2013-03-15 11:52:00,
2013-03-15 08:02:00,34.0,18.0,30.14,SW,236,0.0,2.0,52,0.00,,,0.00,,2013-03-15 12:02:00,
2013-03-15 08:12:00,34.0,18.0,30.14,SW,236,0.0,2.0,52,0.00,,,0.00,,2013-03-15 12:12:00,
2013-03-15 08:23:00,35.0,19.0,30.13,SW,236,0.0,2.0,51,0.00,,,0.00,,2013-03-15 12:23:00,
2013-03-15 08:32:00,36.0,18.0,30.12,SW,236,1.0,3.0,48,0.00,,,0.00,,2013-03-15 12:32:00,
2013-03-15 08:42:00,36.0,18.0,30.12,SW,236,1.0,3.0,48,0.00,,,0.00,,2013-03-15 12:42:00,
2013-03-15 08:52:00,38.0,19.0,30.12,SW,236,1.0,3.0,45,0.00,,,0.00,,2013-03-15 12:52:00,
2013-03-15 09:02:00,39.0,19.0,30.13,SW,223,1.0,3.0,44,0.00,,,0.00,,2013-03-15 13:02:00,
2013-03-15 09:12:00,39.0,19.0,30.13,SW,223,1.0,3.0,44,0.00,,,0.00,,2013-03-15 13:12:00,
2013-03-15 09:22:00,41.0,21.0,30.12,SW,227,1.0,5.0,45,0.00,,,0.00,,2013-03-15 13:22:00,
2013-03-15 09:32:00,42.0,22.0,30.12,West,269,4.0,9.0,44,0.00,,,0.00,,2013-03-15 13:32:00,
2013-03-15 09:42:00,42.0,22.0,30.12,West,269,4.0,9.0,44,0.00,,,0.00,,2013-03-15 13:42:00,
2013-03-15 09:53:00,43.0,23.0,30.12,West,277,4.0,9.0,44,0.00,,,0.00,,2013-03-15 13:53:00,
2013-03-15 10:02:00,43.0,23.0,30.12,West,259,5.0,11.0,45,0.00,,,0.00,,2013-03-15 14:02:00,
2013-03-15 10:12:00,43.0,23.0,30.12,West,259,5.0,11.0,45,0.00,,,0.00,,2013-03-15 14:12:00,
2013-03-15 10:22:00,44.0,23.0,30.11,ENE,67,3.0,8.0,44,0.00,,,0.00,,2013-03-15 14:22:00,
2013-03-15 10:32:00,45.0,25.0,30.10,WNW,299,2.0,9.0,45,0.00,,,0.00,,2013-03-15 14:32:00,
2013-03-15 10:42:00,45.0,25.0,30.10,WNW,299,2.0,9.0,45,0.00,,,0.00,,2013-03-15 14:42:00,
2013-03-15 10:53:00,46.0,26.0,30.09,West,271,2.0,7.0,45,0.00,,,0.00,,2013-03-15 14:53:00,
2013-03-15 11:02:00,46.0,27.0,30.09,WSW,254,4.0,14.0,47,0.00,,,0.00,,2013-03-15 15:02:00,
2013-03-15 11:13:00,46.0,27.0,30.09,WSW,254,4.0,14.0,47,0.00,,,0.00,,2013-03-15 15:13:00,
2013-03-15 11:23:00,48.0,28.0,30.08,WSW,251,6.0,9.0,45,0.00,,,0.00,,2013-03-15 15:23:00,
2013-03-15 11:33:00,49.0,29.0,30.07,WSW,251,4.0,11.0,45,0.00,,,0.00,,2013-03-15 15:33:00,
2013-03-15 11:42:00,49.0,29.0,30.06,West,272,6.0,10.0,45,0.00,,,0.00,,2013-03-15 15:42:00,
2013-03-15 11:53:00,49.0,29.0,30.06,West,272,6.0,10.0,45,0.00,,,0.00,,2013-03-15 15:53:00,
2013-03-15 12:03:00,50.0,29.0,30.06,WSW,248,4.0,11.0,45,0.00,,,0.00,,2013-03-15 16:03:00,
2013-03-15 12:12:00,50.0,29.0,30.06,WSW,242,6.0,13.0,44,0.00,,,0.00,,2013-03-15 16:12:00,
2013-03-15 12:23:00,50.0,29.0,30.06,WSW,242,6.0,13.0,44,0.00,,,0.00,,2013-03-15 16:23:00,
2013-03-15 12:32:00,51.0,29.0,30.04,SW,236,5.0,12.0,42,0.00,,,0.00,,2013-03-15 16:32:00,
2013-03-15 12:42:00,51.0,29.0,30.04,SW,236,5.0,12.0,42,0.00,,,0.00,,2013-03-15 16:42:00,
2013-03-15 12:52:00,53.0,30.0,30.04,WNW,302,3.0,12.0,41,0.00,,,0.00,,2013-03-15 16:52:00,
2013-03-15 13:02:00,54.0,30.0,30.03,WSW,251,9.0,18.0,40,0.00,,,0.00,,2013-03-15 17:02:00,
2013-03-15 13:12:00,54.0,30.0,30.03,WSW,251,9.0,18.0,40,0.00,,,0.00,,2013-03-15 17:12:00,
2013-03-15 13:22:00,54.0,29.0,30.02,WSW,248,7.0,15.0,38,0.00,,,0.00,,2013-03-15 17:22:00,
2013-03-15 13:32:00,55.0,30.0,30.01,West,273,5.0,12.0,38,0.00,,,0.00,,2013-03-15 17:32:00,
2013-03-15 13:42:00,55.0,30.0,30.01,West,273,5.0,12.0,38,0.00,,,0.00,,2013-03-15 17:42:00,
2013-03-15 13:53:00,57.0,31.0,29.99,WSW,248,5.0,13.0,37,0.00,,,0.00,,2013-03-15 17:53:00,
2013-03-15 14:03:00,58.0,31.0,29.98,South,181,2.0,11.0,35,0.00,,,0.00,,2013-03-15 18:03:00,
2013-03-15 14:12:00,58.0,31.0,29.98,South,181,2.0,11.0,35,0.00,,,0.00,,2013-03-15 18:12:00,
2013-03-15 14:22:00,59.0,31.0,29.96,West,259,6.0,11.0,35,0.00,,,0.00,,2013-03-15 18:22:00,
2013-03-15 14:32:00,60.0,32.0,29.95,SW,222,4.0,11.0,34,0.00,,,0.00,,2013-03-15 18:32:00,
2013-03-15 14:42:00,60.0,32.0,29.95,SW,222,4.0,11.0,34,0.00,,,0.00,,2013-03-15 18:42:00,
2013-03-15 14:52:00,61.0,32.0,29.93,SW,217,4.0,10.0,34,0.00,,,0.00,,2013-03-15 18:52:00,
2013-03-15 15:02:00,62.0,33.0,29.92,WSW,249,7.0,13.0,34,0.00,,,0.00,,2013-03-15 19:02:00,
2013-03-15 15:12:00,62.0,33.0,29.92,WSW,249,7.0,13.0,34,0.00,,,0.00,,2013-03-15 19:12:00,
2013-03-15 15:23:00,62.0,34.0,29.91,WSW,237,5.0,11.0,35,0.00,,,0.00,,2013-03-15 19:23:00,
2013-03-15 15:32:00,62.0,34.0,29.90,West,275,6.0,18.0,35,0.00,,,0.00,,2013-03-15 19:32:00,
2013-03-15 15:42:00,62.0,34.0,29.90,West,275,6.0,18.0,35,0.00,,,0.00,,2013-03-15 19:42:00,
2013-03-15 15:53:00,62.0,34.0,29.88,WSW,244,5.0,15.0,35,0.00,,,0.00,,2013-03-15 19:53:00,
2013-03-15 16:02:00,63.0,35.0,29.88,WSW,244,7.0,16.0,35,0.00,,,0.00,,2013-03-15 20:02:00,
2013-03-15 16:12:00,63.0,35.0,29.88,WSW,244,7.0,16.0,35,0.00,,,0.00,,2013-03-15 20:12:00,
2013-03-15 16:22:00,64.0,35.0,29.87,SW,233,8.0,13.0,34,0.00,,,0.00,,2013-03-15 20:22:00,
2013-03-15 16:32:00,65.0,35.0,29.87,West,268,5.0,19.0,33,0.00,,,0.00,,2013-03-15 20:32:00,
2013-03-15 16:42:00,65.0,35.0,29.87,West,268,5.0,19.0,33,0.00,,,0.00,,2013-03-15 20:42:00,
2013-03-15 16:52:00,64.0,34.0,29.86,WSW,237,6.0,13.0,33,0.00,,,0.00,,2013-03-15 20:52:00,
2013-03-15 17:02:00,64.0,34.0,29.86,WSW,254,4.0,13.0,33,0.00,,,0.00,,2013-03-15 21:02:00,
2013-03-15 17:12:00,64.0,34.0,29.86,WSW,254,4.0,13.0,33,0.00,,,0.00,,2013-03-15 21:12:00,
2013-03-15 17:22:00,64.0,35.0,29.85,WSW,246,4.0,18.0,34,0.00,,,0.00,,2013-03-15 21:22:00,
2013-03-15 17:33:00,64.0,35.0,29.85,SW,225,4.0,12.0,34,0.00,,,0.00,,2013-03-15 21:33:00,
2013-03-15 17:43:00,64.0,35.0,29.85,SW,225,4.0,12.0,34,0.00,,,0.00,,2013-03-15 21:43:00,
2013-03-15 17:53:00,64.0,35.0,29.85,WSW,252,7.0,16.0,34,0.00,,,0.00,,2013-03-15 21:53:00,
2013-03-15 18:03:00,64.0,35.0,29.85,WSW,242,6.0,15.0,34,0.00,,,0.00,,2013-03-15 22:03:00,
2013-03-15 18:14:00,64.0,35.0,29.85,WSW,242,6.0,15.0,34,0.00,,,0.00,,2013-03-15 22:14:00,
2013-03-15 18:22:00,63.0,34.0,29.85,West,269,6.0,17.0,34,0.00,,,0.00,,2013-03-15 22:22:00,
2013-03-15 18:32:00,63.0,35.0,29.85,WSW,256,7.0,13.0,35,0.00,,,0.00,,2013-03-15 22:32:00,
2013-03-15 18:42:00,63.0,35.0,29.85,WSW,256,7.0,13.0,35,0.00,,,0.00,,2013-03-15 22:42:00,
2013-03-15 18:53:00,63.0,33.0,29.85,WSW,255,4.0,12.0,33,0.00,,,0.00,,2013-03-15 22:53:00,
2013-03-15 19:02:00,63.0,33.0,29.85,West,260,6.0,16.0,33,0.00,,,0.00,,2013-03-15 23:02:00,
2013-03-15 19:12:00,63.0,33.0,29.85,West,260,6.0,16.0,33,0.00,,,0.00,,2013-03-15 23:12:00,
2013-03-15 19:22:00,62.0,33.0,29.86,SW,229,4.0,14.0,34,0.00,,,0.00,,2013-03-15 23:22:00,
2013-03-15 19:32:00,62.0,33.0,29.86,WSW,246,6.0,16.0,34,0.00,,,0.00,,2013-03-15 23:32:00,
2013-03-15 19:42:00,62.0,33.0,29.86,WSW,246,6.0,16.0,34,0.00,,,0.00,,2013-03-15 23:42:00,
2013-03-15 19:53:00,61.0,32.0,29.86,West,275,7.0,13.0,34,0.00,,,0.00,,2013-03-15 23:53:00,
2013-03-15 20:03:00,61.0,33.0,29.86,West,265,5.0,9.0,35,0.00,,,0.00,,2013-03-16 00:03:00,
2013-03-15 20:12:00,61.0,33.0,29.86,West,265,5.0,9.0,35,0.00,,,0.00,,2013-03-16 00:12:00,
2013-03-15 20:22:00,60.0,32.0,29.87,WSW,258,8.0,12.0,35,0.00,,,0.00,,2013-03-16 00:22:00,
2013-03-15 20:32:00,60.0,33.0,29.87,WSW,257,3.0,11.0,36,0.00,,,0.00,,2013-03-16 00:32:00,
2013-03-15 20:42:00,60.0,33.0,29.87,WSW,257,3.0,11.0,36,0.00,,,0.00,,2013-03-16 00:42:00,
2013-03-15 20:52:00,60.0,33.0,29.86,West,259,4.0,11.0,36,0.00,,,0.00,,2013-03-16 00:52:00,
2013-03-15 21:03:00,59.0,33.0,29.86,WSW,250,2.0,6.0,38,0.00,,,0.00,,2013-03-16 01:03:00,
2013-03-15 21:12:00,59.0,33.0,29.86,WSW,250,2.0,6.0,38,0.00,,,0.00,,2013-03-16 01:12:00,
2013-03-15 21:22:00,59.0,34.0,29.86,WSW,244,4.0,12.0,39,0.00,,,0.00,,2013-03-16 01:22:00,
2013-03-15 21:32:00,59.0,35.0,29.87,SW,232,4.0,10.0,40,0.00,,,0.00,,2013-03-16 01:32:00,
2013-03-15 21:42:00,59.0,35.0,29.87,SW,232,4.0,10.0,40,0.00,,,0.00,,2013-03-16 01:42:00,
2013-03-15 21:53:00,59.0,35.0,29.87,West,261,7.0,18.0,41,0.00,,,0.00,,2013-03-16 01:53:00,
2013-03-15 22:02:00,58.0,35.0,29.87,West,269,7.0,10.0,42,0.00,,,0.00,,2013-03-16 02:02:00,
2013-03-15 22:12:00,58.0,35.0,29.87,West,269,7.0,10.0,42,0.00,,,0.00,,2013-03-16 02:12:00,
2013-03-15 22:23:00,58.0,36.0,29.87,West,260,6.0,11.0,43,0.00,,,0.00,,2013-03-16 02:23:00,
2013-03-15 22:33:00,58.0,36.0,29.86,West,273,5.0,14.0,43,0.00,,,0.00,,2013-03-16 02:33:00,
2013-03-15 22:42:00,58.0,36.0,29.86,West,273,5.0,14.0,43,0.00,,,0.00,,2013-03-16 02:42:00,
2013-03-15 22:52:00,58.0,36.0,29.87,WSW,253,3.0,9.0,44,0.00,,,0.00,,2013-03-16 02:52:00,
2013-03-15 23:02:00,57.0,36.0,29.87,West,263,4.0,7.0,45,0.00,,,0.00,,2013-03-16 03:02:00,
2013-03-15 23:12:00,57.0,36.0,29.87,West,263,4.0,7.0,45,0.00,,,0.00,,2013-03-16 03:12:00,
2013-03-15 23:22:00,57.0,36.0,29.87,West,273,4.0,7.0,46,0.00,,,0.00,,2013-03-16 03:22:00,
2013-03-15 23:32:00,56.0,36.0,29.86,West,270,4.0,7.0,46,0.00,,,0.00,,2013-03-16 03:32:00,
2013-03-15 23:43:00,56.0,36.0,29.86,West,270,4.0,7.0,46,0.00,,,0.00,,2013-03-16 03:43:00,
2013-03-15 23:53:00,56.0,36.0,29.86,West,277,2.0,8.0,46,0.00,,,0.00,,2013-03-16 03:53:00,